Location: Caracas
(10.5000°N, 66.9170°W)
Time: 05:36:57
(UTC-04:00)

N. Korean satellite - Visible Passes

Search period start: 24 November 2017 00:00
Search period end: 04 December 2017 00:00
Orbit: 460 x 514 km, 97.2° (Epoch: 23 November)

Date Brightness Start Highest point End Pass type
(mag) Time Alt. Az. Time Alt. Az. Time Alt. Az.
24 Nov 6.6 18:51:57 10° S 18:55:24 75° W 18:58:53 10° NNW visible
25 Nov 6.9 18:28:43 10° SSE 18:31:58 39° ENE 18:35:15 10° N visible
26 Nov 10.0 19:40:30 10° WSW 19:41:51 12° W 19:43:12 10° WNW visible
27 Nov 8.7 19:15:19 10° SSW 19:18:21 28° W 19:21:24 10° NW visible
28 Nov 6.6 18:51:23 10° S 18:54:52 76° W 18:58:23 10° NNW visible
29 Nov 7.0 18:28:08 10° SSE 18:31:24 39° ENE 18:34:42 10° N visible
30 Nov 9.9 19:39:49 10° WSW 19:41:16 12° W 19:42:44 10° WNW visible
01 Dec 8.7 19:14:41 10° SSW 19:17:45 29° W 19:20:51 10° NW visible
02 Dec 6.7 18:50:44 10° S 18:54:14 77° W 18:57:48 10° NNW visible
03 Dec 7.0 18:27:28 10° SSE 18:30:46 38° ENE 18:34:07 10° N visible
